This demonstration page uses our WeatherBlox Daily Observations layout. Learn more.

Left ArrowRight Arrow

Hourly Observations for September 16, 2015

Temp ( °F °C ) Dew Point ( °F °C ) Humidity (%) Winds ( mph kmh ) Pressure ( in mb ) Visibility ( mi km ) Precip ( " mm )
12:53 am 00:53 Clear with Nearby Thunderstorms 59 15 41 5 51 51 WSW 3 6 29.82 1010 10 16 0.00 0.00
1:53 am 01:53 Mostly Cloudy with Nearby Thunderstorms 58 14.4 42 5.6 56 56 Calm 29.84 1010 10 16 0.00 0.00
2:53 am 02:53 Clear with Nearby Thunderstorms 54 12.2 41 5 62 62 Calm 29.85 1011 10 16 0.00 0.00
3:53 am 03:53 Clear with Nearby Thunderstorms 58 14.4 44 6.7 60 60 SW 5 7 29.87 1011 10 16 0.00 0.00
4:53 am 04:53 Mostly Clear with Nearby Thunderstorms 59 15 45 7.2 60 60 S 9 15 29.86 1011 10 16 0.00 0.00
5:53 am 05:53 Mostly Cloudy with Nearby Thunderstorms 59 15 44 6.7 58 58 SSW 10 17 29.88 1012 10 16 0.00 0.00
6:37 am 06:37 Cloudy 59 15 44 6.7 58 58 S 9 15 29.91 1013 10 16 0.00 0.00
6:53 am 06:53 Cloudy 59 15 45 7.2 60 60 S 10 17 29.90 1013 10 16 0.00 0.00
7:53 am 07:53 Cloudy 58 14.4 46 7.8 65 65 S 7 11 29.92 1013 10 16 0.00 0.00
8:53 am 08:53 Cloudy with Light Rain 58 14.4 48 8.9 70 70 Calm 29.94 1014 10 16 0.00 0.03
9:53 am 09:53 Cloudy 56 13.3 50 10 81 81 WNW 5 7 29.97 1015 10 16 0.02 0.51
10:53 am 10:53 Cloudy 57 13.9 51 10.6 81 81 N 7 11 29.97 1015 10 16 0.00 0.00
11:53 am 11:53 Cloudy 58 14.4 51 10.6 78 78 NNE 6 9 29.98 1015 10 16 0.00 0.00
12:53 pm 12:53 Cloudy with Light Rain 60 15.6 51 10.6 72 72 NNW 3 6 29.97 1015 10 16 0.00 0.03
1:53 pm 13:53 Cloudy with Light Rain 57 13.9 52 11.1 83 83 N 6 9 29.97 1015 4 6 0.07 1.78
2:06 pm 14:06 Cloudy with Rain 57 13.9 52 11.1 83 83 N 7 11 29.97 1015 3 4 0.03 0.76
2:27 pm 14:27 Cloudy with Rain 57 13.9 52 11.1 83 83 N 7 11 29.97 1015 3 5 0.08 2.03
2:34 pm 14:34 Cloudy with Rain 55 13 52 11 88 88 N 8 13 29.97 1015 3 4 0.00 0.00
2:53 pm 14:53 Cloudy with Rain 56 13.3 52 11.1 87 87 N 10 17 29.96 1015 3 5 0.16 4.06
3:18 pm 15:18 Cloudy with Light Rain 55 13 52 11 88 88 NNW 3 6 29.97 1015 3 4 0.00 0.00
3:40 pm 15:40 Cloudy with Light Rain 55 13 52 11 88 88 NNW 6 9 29.97 1015 4 6 0.00 0.00
3:53 pm 15:53 Cloudy with Light Rain 56 13.3 52 11.1 87 87 NNW 8 13 29.96 1015 8 13 0.06 1.52
4:28 pm 16:28 Cloudy with Rain 55 13 54 12 94 94 N 9 15 29.97 1015 3 4 0.00 0.00
4:36 pm 16:36 Cloudy with Light Rain 57 13.9 53 11.7 87 87 N 8 13 29.97 1015 4 6 0.05 1.27
4:53 pm 16:53 Cloudy with Light Rain 57 13.9 53 11.7 87 87 N 7 11 29.96 1015 3 5 0.07 1.78
5:25 pm 17:25 Cloudy with Rain 57 13.9 54 12.2 90 90 N 5 7 29.97 1015 2 3 0.05 1.27
5:30 pm 17:30 Cloudy with Light Rain 57 14 54 12 88 88 N 3 6 29.97 1015 3 5 0.00 0.00
5:53 pm 17:53 Cloudy with Rain 57 13.9 54 12.2 90 90 N 8 13 29.95 1014 3 4 0.10 2.54
6:05 pm 18:05 Cloudy with Light Rain 57 13.9 54 12.2 90 90 N 6 9 29.97 1015 5 8 0.01 0.25
6:53 pm 18:53 Cloudy 57 13.9 54 12.2 90 90 NNE 6 9 29.96 1014 10 16 0.04 1.02
7:53 pm 19:53 Cloudy 58 14.4 54 12.2 87 87 N 5 7 29.96 1015 10 16 0.01 0.25
8:05 pm 20:05 Cloudy 58 14.4 54 12.2 87 87 NNW 3 6 29.97 1015 10 16 0.00 0.00
8:53 pm 20:53 Cloudy with Light Rain 58 14.4 55 12.8 90 90 WNW 5 7 29.97 1015 6 10 0.01 0.25
9:53 pm 21:53 Cloudy 58 14.4 54 12.2 87 87 N 6 9 29.98 1015 10 16 0.01 0.25
10:23 pm 22:23 Cloudy 58 14.4 54 12.2 87 87 NNW 3 6 30.00 1016 10 16 0.00 0.00
10:53 pm 22:53 Cloudy 58 14.4 54 12.2 87 87 WNW 3 6 30.00 1016 10 16 0.00 0.00
11:53 pm 23:53 Cloudy 58 14.4 54 12.2 87 87 Calm 30.01 1016 10 16 0.00 0.00

Powered by AerisWeather